| time (UTC) | temp F | wind direction | speed knots | gust knots | rain 1hr in | rain 24hr in | rain mn in | humidity % | barometer mb |
| 20260903035530 | 63 | 142 | 7.8 | 0.0 | 0.00 | 0.00 | 0.00 | 94 | 1012.1 |
| 20260903035028 | 63 | 143 | 7.8 | 0.0 | 0.00 | 0.00 | 0.00 | 94 | 1012.2 |
| 20260903034538 | 63 | 135 | 7.8 | 0.0 | 0.00 | 0.00 | 0.00 | 93 | 1012.5 |
| 20260903034025 | 63 | 152 | 7.8 | 0.0 | 0.00 | 0.00 | 0.00 | 93 | 1012.8 |
| 20260903033524 | 63 | 127 | 7.8 | 0.0 | 0.00 | 0.00 | 0.00 | 92 | 1013.3 |
| 20260903033023 | 63 | 134 | 7.0 | 0.0 | 0.00 | 0.00 | 0.00 | 92 | 1013.5 |
| 20260903032526 | 63 | 118 | 6.1 | 0.0 | 0.00 | 0.00 | 0.00 | 92 | 1013.9 |
| 20260903032021 | 63 | 122 | 6.1 | 0.0 | 0.00 | 0.00 | 0.00 | 91 | 1013.9 |
| 20260903031521 | 64 | 164 | 5.2 | 0.0 | 0.00 | 0.00 | 0.00 | 90 | 1013.9 |
| 20260903031021 | 64 | 151 | 6.1 | 0.0 | 0.00 | 0.00 | 0.00 | 90 | 1013.9 |
| 20260903030521 | 64 | 134 | 6.1 | 0.0 | 0.00 | 0.00 | 0.00 | 89 | 1014.0 |
| 20260903030021 | 64 | 138 | 6.1 | 0.0 | 0.00 | 0.00 | 0.00 | 89 | 1013.9 |
| 20260903025520 | 64 | 158 | 6.1 | 0.0 | 0.00 | 0.00 | 0.00 | 88 | 1013.9 |
| 20260903025020 | 64 | 151 | 6.1 | 0.0 | 0.00 | 0.00 | 0.00 | 88 | 1013.9 |
| 20260903024520 | 64 | 149 | 6.1 | 0.0 | 0.00 | 0.00 | 0.00 | 88 | 1014.0 |
| 20260903024019 | 64 | 138 | 5.2 | 0.0 | 0.00 | 0.00 | 0.00 | 88 | 1014.1 |
| 20260903023518 | 64 | 126 | 5.2 | 0.0 | 0.00 | 0.00 | 0.00 | 87 | 1014.1 |
| 20260903023019 | 64 | 123 | 6.1 | 0.0 | 0.00 | 0.00 | 0.00 | 87 | 1014.2 |
| 20260903022518 | 64 | 135 | 7.0 | 0.0 | 0.00 | 0.00 | 0.00 | 87 | 1014.2 |
| 20260903022018 | 64 | 120 | 6.1 | 0.0 | 0.00 | 0.00 | 0.00 | 87 | 1014.1 |
| 20260903021522 | 64 | 132 | 4.3 | 0.0 | 0.00 | 0.00 | 0.00 | 87 | 1014.2 |
| 20260903021017 | 64 | 153 | 3.5 | 0.0 | 0.00 | 0.00 | 0.00 | 86 | 1014.4 |
| 20260903020518 | 64 | 140 | 5.2 | 0.0 | 0.00 | 0.00 | 0.00 | 86 | 1014.5 |
| 20260903020036 | 64 | 147 | 4.3 | 0.0 | 0.00 | 0.00 | 0.00 | 86 | 1014.7 |
| 20260903015522 | 64 | 146 | 4.3 | 0.0 | 0.00 | 0.00 | 0.00 | 86 | 1014.8 |
| 20260903015018 | 64 | 127 | 4.3 | 0.0 | 0.00 | 0.00 | 0.00 | 86 | 1015.2 |
| 20260903014517 | 64 | 158 | 4.3 | 0.0 | 0.00 | 0.00 | 0.00 | 86 | 1015.3 |
| 20260903014018 | 64 | 165 | 3.5 | 0.0 | 0.00 | 0.00 | 0.00 | 86 | 1015.1 |
| 20260903013520 | 64 | 151 | 4.3 | 0.0 | 0.00 | 0.00 | 0.00 | 86 | 1015.1 |
| 20260903013016 | 64 | 144 | 4.3 | 0.0 | 0.00 | 0.00 | 0.00 | 86 | 1015.2 |
| 20260903012518 | 64 | 150 | 4.3 | 0.0 | 0.00 | 0.00 | 0.00 | 86 | 1015.3 |
| 20260903012020 | 64 | 130 | 2.6 | 0.0 | 0.00 | 0.00 | 0.00 | 85 | 1015.3 |
| 20260903011516 | 64 | 136 | 2.6 | 0.0 | 0.00 | 0.00 | 0.00 | 85 | 1015.4 |
| 20260903011016 | 64 | 164 | 1.7 | 0.0 | 0.00 | 0.00 | 0.00 | 84 | 1015.5 |
| 20260903010515 | 64 | 175 | 1.7 | 0.0 | 0.00 | 0.00 | 0.00 | 84 | 1015.6 |
| 20260903010016 | 65 | 204 | 0.9 | 0.0 | 0.00 | 0.00 | 0.00 | 84 | 1015.7 |
| 20260903005517 | 65 | 178 | 1.7 | 0.0 | 0.00 | 0.00 | 0.00 | 83 | 1015.8 |
| 20260903005015 | 64 | 183 | 2.6 | 0.0 | 0.00 | 0.00 | 0.00 | 83 | 1015.6 |
| 20260903004515 | 65 | 171 | 2.6 | 0.0 | 0.00 | 0.00 | 0.00 | 84 | 1015.9 |
| 20260903004020 | 65 | 237 | 1.7 | 0.0 | 0.00 | 0.00 | 0.00 | 83 | 1015.8 |
| 20260903003515 | 65 | 219 | 1.7 | 0.0 | 0.00 | 0.00 | 0.00 | 84 | 1015.6 |
| 20260903003014 | 65 | 170 | 2.6 | 0.0 | 0.00 | 0.00 | 0.00 | 84 | 1015.5 |
| 20260903002514 | 65 | 141 | 3.5 | 0.0 | 0.00 | 0.00 | 0.00 | 84 | 1015.6 |
| 20260903002014 | 65 | 146 | 3.5 | 0.0 | 0.00 | 0.00 | 0.00 | 84 | 1015.4 |
| 20260903001514 | 65 | 149 | 3.5 | 0.0 | 0.00 | 0.00 | 0.00 | 85 | 1015.4 |
| 20260903001013 | 65 | 219 | 4.3 | 0.0 | 0.00 | 0.00 | 0.00 | 84 | 1015.3 |
| 20260903000519 | 65 | 158 | 4.3 | 0.0 | 0.00 | 0.00 | 0.00 | 85 | 1015.3 |
| 20260903000014 | 65 | 185 | 4.3 | 0.0 | 0.00 | 0.00 | 0.00 | 85 | 1015.0 |
| 20260902235514 | 65 | 153 | 5.2 | 0.0 | 0.00 | 0.00 | 0.00 | 85 | 1014.8 |
| 20260902235013 | 65 | 172 | 6.1 | 0.0 | 0.00 | 0.00 | 0.00 | 86 | 1014.5 |
| 20260902234518 | 65 | 155 | 5.2 | 0.0 | 0.00 | 0.00 | 0.00 | 86 | 1014.3 |
| 20260902234013 | 65 | 148 | 6.1 | 0.0 | 0.00 | 0.00 | 0.00 | 86 | 1014.2 |
| 20260902233512 | 65 | 156 | 7.8 | 0.0 | 0.00 | 0.00 | 0.00 | 85 | 1014.0 |
| 20260902233015 | 65 | 167 | 7.0 | 0.0 | 0.00 | 0.00 | 0.00 | 86 | 1014.1 |
| 20260902232512 | 65 | 121 | 6.1 | 0.0 | 0.00 | 0.00 | 0.00 | 86 | 1014.4 |
| 20260902232011 | 65 | 150 | 5.2 | 0.0 | 0.00 | 0.00 | 0.00 | 86 | 1014.1 |
| 20260902231515 | 65 | 119 | 5.2 | 0.0 | 0.00 | 0.00 | 0.00 | 86 | 1014.3 |
| 20260902231011 | 65 | 122 | 6.1 | 0.0 | 0.00 | 0.00 | 0.00 | 86 | 1014.2 |
| 20260902230510 | 65 | 134 | 6.1 | 0.0 | 0.00 | 0.00 | 0.00 | 86 | 1014.1 |
| 20260902230009 | 65 | 171 | 3.5 | 0.0 | 0.00 | 0.00 | 0.00 | 86 | 1014.8 |
| 20260902225507 | 65 | 149 | 1.7 | 0.0 | 0.00 | 0.00 | 0.00 | 86 | 1015.3 |
| 20260902225007 | 65 | 217 | 2.6 | 0.0 | 0.00 | 0.00 | 0.00 | 86 | 1015.5 |
| 20260902224506 | 65 | 148 | 1.7 | 0.0 | 0.00 | 0.00 | 0.00 | 86 | 1015.8 |
| 20260902224005 | 65 | 159 | 0.9 | 0.0 | 0.00 | 0.00 | 0.00 | 86 | 1016.0 |
| 20260902223505 | 65 | 150 | 0.9 | 0.0 | 0.00 | 0.00 | 0.00 | 86 | 1016.3 |
| 20260902223005 | 65 | 139 | 0.9 | 0.0 | 0.00 | 0.00 | 0.00 | 85 | 1016.3 |
| 20260902222505 | 66 | 128 | 1.7 | 0.0 | 0.00 | 0.00 | 0.00 | 86 | 1016.4 |
| 20260902222004 | 66 | 119 | 1.7 | 0.0 | 0.00 | 0.00 | 0.00 | 85 | 1016.4 |
| 20260902221506 | 66 | 135 | 2.6 | 0.0 | 0.00 | 0.00 | 0.00 | 86 | 1016.5 |
| 20260902221004 | 66 | 185 | 3.5 | 0.0 | 0.00 | 0.00 | 0.00 | 86 | 1016.6 |
| 20260902220504 | 66 | 175 | 2.6 | 0.0 | 0.00 | 0.00 | 0.00 | 86 | 1016.5 |
| 20260902220005 | 66 | 121 | 1.7 | 0.0 | 0.00 | 0.00 | 0.00 | 86 | 1016.5 |
| 20260902215503 | 66 | 198 | 1.7 | 0.0 | 0.00 | 0.00 | 0.00 | 86 | 1016.6 |
| 20260902215003 | 66 | 148 | 1.7 | 0.0 | 0.00 | 0.00 | 0.00 | 86 | 1016.7 |
| 20260902214504 | 66 | 224 | 2.6 | 0.0 | 0.00 | 0.00 | 0.00 | 87 | 1016.6 |
| 20260902214004 | 66 | 119 | 2.6 | 0.0 | 0.00 | 0.00 | 0.00 | 86 | 1016.7 |
| 20260902213502 | 66 | 244 | 4.3 | 0.0 | 0.00 | 0.00 | 0.00 | 85 | 1016.9 |
| 20260902213002 | 66 | 196 | 5.2 | 0.0 | 0.00 | 0.00 | 0.00 | 86 | 1016.8 |
| 20260902212503 | 66 | 144 | 5.2 | 0.0 | 0.00 | 0.00 | 0.00 | 86 | 1016.7 |
| 20260902212002 | 67 | 148 | 5.2 | 0.0 | 0.00 | 0.00 | 0.00 | 85 | 1016.6 |
| 20260902211502 | 67 | 148 | 5.2 | 0.0 | 0.00 | 0.00 | 0.00 | 86 | 1016.6 |
| 20260902211002 | 67 | 129 | 5.2 | 0.0 | 0.00 | 0.00 | 0.00 | 85 | 1016.6 |
| 20260902210502 | 67 | 159 | 4.3 | 0.0 | 0.00 | 0.00 | 0.00 | 85 | 1016.6 |
| 20260902210004 | 67 | 146 | 5.2 | 0.0 | 0.00 | 0.00 | 0.00 | 85 | 1016.8 |
| 20260902205504 | 67 | 225 | 4.3 | 0.0 | 0.00 | 0.00 | 0.00 | 85 | 1016.9 |
| 20260902205003 | 67 | 142 | 4.3 | 0.0 | 0.00 | 0.00 | 0.00 | 85 | 1016.9 |
| 20260902204505 | 67 | 117 | 6.1 | 0.0 | 0.00 | 0.00 | 0.00 | 85 | 1016.9 |
| 20260902204001 | 67 | 121 | 7.0 | 0.0 | 0.00 | 0.00 | 0.00 | 85 | 1016.7 |
| 20260902203500 | 67 | 128 | 5.2 | 0.0 | 0.00 | 0.00 | 0.00 | 85 | 1016.6 |
| 20260902203102 | 67 | 167 | 5.2 | 0.0 | 0.00 | 0.00 | 0.00 | 84 | 1016.7 |
| 20260902202559 | 67 | 136 | 5.2 | 0.0 | 0.00 | 0.00 | 0.00 | 86 | 1016.7 |
| 20260902202059 | 67 | 147 | 7.0 | 0.0 | 0.00 | 0.00 | 0.00 | 86 | 1016.6 |
| 20260902201605 | 67 | 148 | 7.8 | 0.0 | 0.00 | 0.00 | 0.00 | 86 | 1016.4 |
| 20260902201100 | 67 | 117 | 7.0 | 0.0 | 0.00 | 0.00 | 0.00 | 87 | 1016.6 |
| 20260902200556 | 67 | 159 | 7.0 | 0.0 | 0.00 | 0.00 | 0.00 | 86 | 1016.8 |
| 20260902200056 | 66 | 126 | 7.0 | 0.0 | 0.00 | 0.00 | 0.00 | 86 | 1017.1 |
| 20260902195555 | 66 | 141 | 6.1 | 0.0 | 0.00 | 0.00 | 0.00 | 86 | 1016.9 |
| 20260902195057 | 66 | 130 | 5.2 | 0.0 | 0.00 | 0.00 | 0.00 | 87 | 1017.1 |
| 20260902194556 | 66 | 145 | 4.3 | 0.0 | 0.00 | 0.00 | 0.00 | 87 | 1017.2 |
| 20260902194056 | 66 | 155 | 3.5 | 0.0 | 0.00 | 0.00 | 0.00 | 87 | 1017.1 |
| 20260902193554 | 66 | 149 | 4.3 | 0.0 | 0.00 | 0.00 | 0.00 | 86 | 1017.0 |
| 20260902193058 | 66 | 122 | 6.1 | 0.0 | 0.00 | 0.00 | 0.00 | 87 | 1016.8 |
| 20260902192553 | 66 | 149 | 7.0 | 0.0 | 0.00 | 0.00 | 0.00 | 86 | 1016.9 |
| 20260902192053 | 66 | 125 | 6.1 | 0.0 | 0.00 | 0.00 | 0.00 | 87 | 1017.1 |
| 20260902191553 | 66 | 77 | 6.1 | 0.0 | 0.00 | 0.00 | 0.00 | 86 | 1017.3 |
| 20260902191052 | 66 | 136 | 7.0 | 0.0 | 0.00 | 0.00 | 0.00 | 86 | 1016.9 |
| 20260902190552 | 66 | 163 | 7.0 | 0.0 | 0.00 | 0.00 | 0.00 | 87 | 1016.9 |
| 20260902190051 | 66 | 144 | 5.2 | 0.0 | 0.00 | 0.00 | 0.00 | 87 | 1017.0 |
| 20260902185551 | 66 | 131 | 3.5 | 0.0 | 0.00 | 0.00 | 0.00 | 88 | 1017.2 |
| 20260902185051 | 65 | 153 | 4.3 | 0.0 | 0.00 | 0.00 | 0.00 | 87 | 1017.4 |
| 20260902184555 | 65 | 142 | 6.1 | 0.0 | 0.00 | 0.00 | 0.00 | 87 | 1017.3 |
| 20260902184055 | 65 | 135 | 5.2 | 0.0 | 0.00 | 0.00 | 0.00 | 86 | 1017.3 |
| 20260902183550 | 65 | 160 | 4.3 | 0.0 | 0.00 | 0.00 | 0.00 | 86 | 1017.5 |
| 20260902183050 | 65 | 135 | 5.2 | 0.0 | 0.00 | 0.00 | 0.00 | 87 | 1017.4 |
| 20260902182549 | 65 | 140 | 6.1 | 0.0 | 0.00 | 0.00 | 0.00 | 87 | 1017.4 |
| 20260902182049 | 65 | 116 | 7.0 | 0.0 | 0.00 | 0.00 | 0.00 | 87 | 1017.4 |
| 20260902181554 | 65 | 137 | 6.1 | 0.0 | 0.00 | 0.00 | 0.00 | 87 | 1017.4 |
| 20260902181050 | 65 | 118 | 4.3 | 0.0 | 0.00 | 0.00 | 0.00 | 89 | 1017.4 |
| 20260902180549 | 65 | 122 | 4.3 | 0.0 | 0.00 | 0.00 | 0.00 | 90 | 1017.6 |
| 20260902180049 | 64 | 104 | 4.3 | 0.0 | 0.00 | 0.00 | 0.00 | 90 | 1017.6 |
| 20260902175549 | 64 | 140 | 3.5 | 0.0 | 0.00 | 0.00 | 0.00 | 91 | 1017.6 |
| 20260902175049 | 63 | 148 | 3.5 | 0.0 | 0.00 | 0.00 | 0.00 | 92 | 1017.8 |
| 20260902174550 | 63 | 161 | 3.5 | 0.0 | 0.00 | 0.00 | 0.00 | 91 | 1017.7 |
| 20260902174049 | 63 | 146 | 1.7 | 0.0 | 0.00 | 0.00 | 0.00 | 90 | 1017.8 |
| 20260902173548 | 63 | 156 | 0.9 | 0.0 | 0.00 | 0.00 | 0.00 | 89 | 1018.4 |
| 20260902173050 | 63 | 128 | 0.9 | 0.0 | 0.00 | 0.00 | 0.00 | 88 | 1018.3 |
| 20260902172549 | 63 | 123 | 2.6 | 0.0 | 0.00 | 0.00 | 0.00 | 88 | 1018.3 |
| 20260902172048 | 63 | 105 | 2.6 | 0.0 | 0.00 | 0.00 | 0.00 | 88 | 1017.7 |
| 20260902171603 | 63 | 174 | 3.5 | 0.0 | 0.00 | 0.00 | 0.00 | 88 | 1017.6 |
| 20260902171047 | 63 | 185 | 2.6 | 0.0 | 0.00 | 0.00 | 0.00 | 87 | 1017.8 |
| 20260902170549 | 63 | 213 | 2.6 | 0.0 | 0.00 | 0.00 | 0.00 | 87 | 1017.6 |
| 20260902170048 | 63 | 156 | 3.5 | 0.0 | 0.00 | 0.00 | 0.00 | 87 | 1017.5 |
| 20260902165547 | 63 | 151 | 3.5 | 0.0 | 0.00 | 0.00 | 0.00 | 88 | 1017.5 |
| 20260902165047 | 63 | 123 | 2.6 | 0.0 | 0.00 | 0.00 | 0.00 | 88 | 1017.4 |
| 20260902164547 | 63 | 161 | 3.5 | 0.0 | 0.00 | 0.00 | 0.00 | 88 | 1017.7 |
| 20260902164050 | 63 | 165 | 4.3 | 0.0 | 0.00 | 0.00 | 0.00 | 87 | 1017.8 |
| 20260902163547 | 63 | 127 | 4.3 | 0.0 | 0.00 | 0.00 | 0.00 | 88 | 1017.7 |
| 20260902163046 | 63 | 127 | 5.2 | 0.0 | 0.00 | 0.00 | 0.00 | 88 | 1017.8 |
| 20260902162545 | 63 | 119 | 4.3 | 0.0 | 0.00 | 0.00 | 0.00 | 89 | 1017.9 |
| 20260902162050 | 63 | 125 | 4.3 | 0.0 | 0.00 | 0.00 | 0.00 | 88 | 1018.1 |
| 20260902161545 | 63 | 140 | 3.5 | 0.0 | 0.00 | 0.00 | 0.00 | 88 | 1018.2 |
| 20260902161044 | 63 | 159 | 2.6 | 0.0 | 0.00 | 0.00 | 0.00 | 88 | 1018.3 |
| 20260902160544 | 63 | 132 | 2.6 | 0.0 | 0.00 | 0.00 | 0.00 | 88 | 1018.5 |
| 20260902160053 | 63 | 132 | 2.6 | 0.0 | 0.00 | 0.00 | 0.00 | 88 | 1018.4 |
| 20260902155544 | 63 | 140 | 3.5 | 0.0 | 0.00 | 0.00 | 0.00 | 89 | 1018.2 |
| 20260902155044 | 63 | 116 | 4.3 | 0.0 | 0.00 | 0.00 | 0.00 | 89 | 1018.2 |
| 20260902154545 | 63 | 159 | 3.5 | 0.0 | 0.00 | 0.00 | 0.00 | 89 | 1018.4 |
| 20260902154043 | 63 | 130 | 2.6 | 0.0 | 0.00 | 0.00 | 0.00 | 89 | 1018.5 |
| 20260902153542 | 63 | 129 | 2.6 | 0.0 | 0.00 | 0.00 | 0.00 | 88 | 1018.5 |
| 20260902153042 | 63 | 154 | 3.5 | 0.0 | 0.00 | 0.00 | 0.00 | 88 | 1018.4 |
| 20260902152541 | 63 | 148 | 3.5 | 0.0 | 0.00 | 0.00 | 0.00 | 88 | 1018.6 |
| 20260902152041 | 63 | 167 | 4.3 | 0.0 | 0.00 | 0.00 | 0.00 | 89 | 1018.6 |
| 20260902151542 | 63 | 119 | 4.3 | 0.0 | 0.00 | 0.00 | 0.00 | 89 | 1018.6 |
| 20260902151043 | 62 | 114 | 3.5 | 0.0 | 0.00 | 0.00 | 0.00 | 89 | 1018.7 |
| 20260902150540 | 62 | 128 | 2.6 | 0.0 | 0.00 | 0.00 | 0.00 | 89 | 1018.8 |
| 20260902150041 | 62 | 136 | 3.5 | 0.0 | 0.00 | 0.00 | 0.00 | 91 | 1018.7 |
| 20260902145541 | 62 | 132 | 3.5 | 0.0 | 0.00 | 0.00 | 0.00 | 90 | 1018.6 |
| 20260902145040 | 62 | 144 | 2.6 | 0.0 | 0.00 | 0.00 | 0.00 | 91 | 1018.6 |
| 20260902144541 | 62 | 192 | 4.3 | 0.0 | 0.00 | 0.00 | 0.00 | 91 | 1018.6 |
| 20260902144040 | 62 | 119 | 3.5 | 0.0 | 0.00 | 0.00 | 0.00 | 91 | 1018.6 |
| 20260902143539 | 62 | 148 | 4.3 | 0.0 | 0.00 | 0.00 | 0.00 | 92 | 1018.6 |
| 20260902143043 | 62 | 137 | 6.1 | 0.0 | 0.00 | 0.00 | 0.00 | 92 | 1018.6 |
| 20260902142539 | 62 | 130 | 5.2 | 0.0 | 0.00 | 0.00 | 0.00 | 93 | 1018.6 |
| 20260902142038 | 62 | 126 | 3.5 | 0.0 | 0.00 | 0.00 | 0.00 | 93 | 1018.7 |
| 20260902141537 | 62 | 113 | 2.6 | 0.0 | 0.00 | 0.00 | 0.00 | 92 | 1018.8 |
| 20260902141036 | 62 | 150 | 3.5 | 0.0 | 0.00 | 0.00 | 0.00 | 93 | 1018.7 |
| 20260902140540 | 62 | 133 | 4.3 | 0.0 | 0.00 | 0.00 | 0.00 | 93 | 1018.7 |
| 20260902140038 | 62 | 142 | 4.3 | 0.0 | 0.00 | 0.00 | 0.00 | 93 | 1018.5 |
| 20260902135539 | 62 | 146 | 3.5 | 0.0 | 0.00 | 0.00 | 0.00 | 92 | 1018.3 |
| 20260902135038 | 62 | 140 | 5.2 | 0.0 | 0.00 | 0.00 | 0.00 | 92 | 1018.4 |
| 20260902134540 | 62 | 156 | 5.2 | 0.0 | 0.00 | 0.00 | 0.00 | 92 | 1018.3 |
| 20260902134035 | 62 | 142 | 3.5 | 0.0 | 0.00 | 0.00 | 0.00 | 92 | 1018.4 |
| 20260902133534 | 62 | 132 | 3.5 | 0.0 | 0.00 | 0.00 | 0.00 | 91 | 1018.5 |
| 20260902133045 | 62 | 134 | 4.3 | 0.0 | 0.00 | 0.00 | 0.00 | 92 | 1018.4 |
| 20260902132533 | 62 | 139 | 4.3 | 0.0 | 0.00 | 0.00 | 0.00 | 92 | 1018.2 |
| 20260902132034 | 62 | 130 | 3.5 | 0.0 | 0.00 | 0.00 | 0.00 | 92 | 1018.3 |
| 20260902131535 | 62 | 161 | 3.5 | 0.0 | 0.00 | 0.00 | 0.00 | 92 | 1018.6 |
| 20260902131033 | 62 | 157 | 3.5 | 0.0 | 0.00 | 0.00 | 0.00 | 92 | 1018.6 |
| 20260902130532 | 62 | 157 | 2.6 | 0.0 | 0.00 | 0.00 | 0.00 | 92 | 1018.6 |
| 20260902130032 | 62 | 206 | 1.7 | 0.0 | 0.00 | 0.00 | 0.00 | 92 | 1018.6 |
| 20260902125531 | 63 | 132 | 2.6 | 0.0 | 0.00 | 0.00 | 0.00 | 92 | 1018.3 |
| 20260902125031 | 62 | 169 | 4.3 | 0.0 | 0.00 | 0.00 | 0.00 | 92 | 1018.2 |
| 20260902124531 | 63 | 165 | 4.3 | 0.0 | 0.00 | 0.00 | 0.00 | 92 | 1017.9 |
| 20260902124029 | 63 | 128 | 3.5 | 0.0 | 0.00 | 0.00 | 0.00 | 92 | 1018.1 |
| 20260902123529 | 63 | 120 | 2.6 | 0.0 | 0.00 | 0.00 | 0.00 | 92 | 1017.9 |
| 20260902123031 | 63 | 157 | 4.3 | 0.0 | 0.00 | 0.00 | 0.00 | 92 | 1017.8 |
| 20260902122529 | 63 | 131 | 6.1 | 0.0 | 0.00 | 0.00 | 0.00 | 92 | 1017.6 |
| 20260902122028 | 63 | 159 | 5.2 | 0.0 | 0.00 | 0.00 | 0.00 | 92 | 1017.9 |
| 20260902121528 | 63 | 128 | 4.3 | 0.0 | 0.00 | 0.00 | 0.00 | 92 | 1018.1 |
| 20260902121028 | 63 | 155 | 3.5 | 0.0 | 0.00 | 0.00 | 0.00 | 92 | 1018.1 |
| 20260902120529 | 62 | 138 | 3.5 | 0.0 | 0.00 | 0.00 | 0.00 | 92 | 1018.1 |
| 20260902120037 | 63 | 213 | 4.3 | 0.0 | 0.00 | 0.00 | 0.00 | 92 | 1017.8 |
| 20260902115530 | 63 | 136 | 4.3 | 0.0 | 0.00 | 0.00 | 0.00 | 92 | 1017.7 |
| 20260902115031 | 62 | 144 | 5.2 | 0.0 | 0.00 | 0.00 | 0.00 | 92 | 1017.8 |
| 20260902114533 | 63 | 108 | 5.2 | 0.0 | 0.00 | 0.00 | 0.00 | 92 | 1017.7 |
| 20260902114030 | 62 | 116 | 3.5 | 0.0 | 0.00 | 0.00 | 0.00 | 92 | 1017.8 |
| 20260902113526 | 62 | 112 | 2.6 | 0.0 | 0.00 | 0.00 | 0.00 | 92 | 1017.8 |
| 20260902113026 | 62 | 158 | 3.5 | 0.0 | 0.00 | 0.00 | 0.00 | 92 | 1017.8 |
| 20260902112526 | 62 | 134 | 3.5 | 0.0 | 0.00 | 0.00 | 0.00 | 92 | 1017.6 |
| 20260902112026 | 62 | 139 | 3.5 | 0.0 | 0.00 | 0.00 | 0.00 | 92 | 1017.6 |
| 20260902111539 | 62 | 150 | 4.3 | 0.0 | 0.00 | 0.00 | 0.00 | 93 | 1017.7 |
| 20260902111025 | 62 | 144 | 4.3 | 0.0 | 0.00 | 0.00 | 0.00 | 93 | 1017.8 |
| 20260902110526 | 62 | 142 | 3.5 | 0.0 | 0.00 | 0.00 | 0.00 | 93 | 1017.9 |
| 20260902110049 | 62 | 125 | 2.6 | 0.0 | 0.00 | 0.00 | 0.00 | 93 | 1018.0 |
| 20260902105525 | 62 | 144 | 2.6 | 0.0 | 0.00 | 0.00 | 0.00 | 93 | 1018.2 |
| 20260902105025 | 62 | 118 | 1.7 | 0.0 | 0.00 | 0.00 | 0.00 | 92 | 1018.2 |
| 20260902104529 | 62 | 139 | 1.7 | 0.0 | 0.00 | 0.00 | 0.00 | 93 | 1018.2 |
| 20260902104024 | 62 | 144 | 0.9 | 0.0 | 0.00 | 0.00 | 0.00 | 93 | 1018.2 |
| 20260902103523 | 62 | 169 | 0.0 | 0.0 | 0.00 | 0.00 | 0.00 | 92 | 1018.2 |
| 20260902103023 | 62 | 165 | 0.9 | 0.0 | 0.00 | 0.00 | 0.00 | 92 | 1018.1 |
| 20260902102523 | 62 | 165 | 0.9 | 0.0 | 0.00 | 0.00 | 0.00 | 92 | 1018.0 |
| 20260902102023 | 62 | 138 | 0.9 | 0.0 | 0.00 | 0.00 | 0.00 | 93 | 1017.9 |
| 20260902101523 | 62 | 165 | 0.9 | 0.0 | 0.00 | 0.00 | 0.00 | 92 | 1018.1 |
| 20260902101022 | 62 | 192 | 1.7 | 0.0 | 0.00 | 0.00 | 0.00 | 92 | 1018.1 |
| 20260902100525 | 62 | 167 | 0.9 | 0.0 | 0.00 | 0.00 | 0.00 | 93 | 1018.0 |
| 20260902100022 | 62 | 157 | 0.9 | 0.0 | 0.00 | 0.00 | 0.00 | 93 | 1018.0 |
| 20260902095522 | 62 | 219 | 0.9 | 0.0 | 0.00 | 0.00 | 0.00 | 93 | 1017.9 |
| 20260902095021 | 62 | 163 | 2.6 | 0.0 | 0.00 | 0.00 | 0.00 | 93 | 1018.0 |
| 20260902094526 | 62 | 128 | 3.5 | 0.0 | 0.00 | 0.00 | 0.00 | 93 | 1017.9 |
| 20260902094024 | 62 | 126 | 2.6 | 0.0 | 0.00 | 0.00 | 0.00 | 93 | 1017.8 |
| 20260902093519 | 62 | 136 | 1.7 | 0.0 | 0.00 | 0.00 | 0.00 | 92 | 1017.7 |
| 20260902093018 | 62 | 116 | 1.7 | 0.0 | 0.00 | 0.00 | 0.00 | 92 | 1017.6 |
| 20260902092518 | 62 | 142 | 1.7 | 0.0 | 0.00 | 0.00 | 0.00 | 93 | 1017.6 |
| 20260902092018 | 62 | 126 | 2.6 | 0.0 | 0.00 | 0.00 | 0.00 | 93 | 1017.6 |
| 20260902091518 | 62 | 142 | 2.6 | 0.0 | 0.00 | 0.00 | 0.00 | 92 | 1017.5 |
| 20260902091017 | 62 | 150 | 0.9 | 0.0 | 0.00 | 0.00 | 0.00 | 92 | 1017.5 |
| 20260902090519 | 62 | 157 | 0.9 | 0.0 | 0.00 | 0.00 | 0.00 | 92 | 1017.5 |
| 20260902090017 | 62 | 142 | 1.7 | 0.0 | 0.00 | 0.00 | 0.00 | 92 | 1017.6 |
| 20260902085518 | 62 | 169 | 1.7 | 0.0 | 0.00 | 0.00 | 0.00 | 92 | 1017.5 |
| 20260902085017 | 62 | 202 | 1.7 | 0.0 | 0.00 | 0.00 | 0.00 | 92 | 1017.4 |
| 20260902084517 | 62 | 153 | 0.9 | 0.0 | 0.00 | 0.00 | 0.00 | 92 | 1017.4 |
| 20260902084017 | 63 | 153 | 1.7 | 0.0 | 0.00 | 0.00 | 0.00 | 92 | 1017.4 |
| 20260902083515 | 63 | 146 | 1.7 | 0.0 | 0.00 | 0.00 | 0.00 | 92 | 1017.4 |
| 20260902083017 | 63 | 149 | 2.6 | 0.0 | 0.00 | 0.00 | 0.00 | 91 | 1017.3 |
| 20260902082515 | 63 | 118 | 3.5 | 0.0 | 0.00 | 0.00 | 0.00 | 92 | 1017.2 |
| 20260902082015 | 63 | 116 | 3.5 | 0.0 | 0.00 | 0.00 | 0.00 | 91 | 1017.1 |
| 20260902081514 | 63 | 132 | 4.3 | 0.0 | 0.00 | 0.00 | 0.00 | 92 | 1017.2 |
| 20260902081014 | 63 | 128 | 5.2 | 0.0 | 0.00 | 0.00 | 0.00 | 91 | 1017.3 |
| 20260902080514 | 63 | 132 | 3.5 | 0.0 | 0.00 | 0.00 | 0.00 | 91 | 1017.3 |
| 20260902080012 | 63 | 95 | 1.7 | 0.0 | 0.00 | 0.00 | 0.00 | 91 | 1017.3 |
| 20260902075512 | 63 | 142 | 2.6 | 0.0 | 0.00 | 0.00 | 0.00 | 91 | 1017.3 |
| 20260902075013 | 63 | 153 | 2.6 | 0.0 | 0.00 | 0.00 | 0.00 | 91 | 1017.3 |
| 20260902074514 | 63 | 135 | 1.7 | 0.0 | 0.00 | 0.00 | 0.00 | 91 | 1017.3 |
| 20260902074011 | 63 | 142 | 0.9 | 0.0 | 0.00 | 0.00 | 0.00 | 91 | 1017.3 |
| 20260902073513 | 63 | 119 | 1.7 | 0.0 | 0.00 | 0.00 | 0.00 | 91 | 1017.2 |
| 20260902073011 | 63 | 133 | 1.7 | 0.0 | 0.00 | 0.00 | 0.00 | 91 | 1017.2 |
| 20260902072510 | 63 | 134 | 0.9 | 0.0 | 0.00 | 0.00 | 0.00 | 91 | 1017.1 |
| 20260902072012 | 63 | 203 | 0.9 | 0.0 | 0.00 | 0.00 | 0.00 | 91 | 1017.3 |
| 20260902071510 | 63 | 110 | 1.7 | 0.0 | 0.00 | 0.00 | 0.00 | 91 | 1017.3 |
| 20260902071014 | 63 | 143 | 1.7 | 0.0 | 0.00 | 0.00 | 0.00 | 92 | 1017.2 |
| 20260902070509 | 63 | 136 | 2.6 | 0.0 | 0.00 | 0.00 | 0.00 | 91 | 1017.2 |
| 20260902070009 | 63 | 133 | 2.6 | 0.0 | 0.00 | 0.00 | 0.00 | 91 | 1017.3 |
| 20260902065509 | 63 | 162 | 3.5 | 0.0 | 0.00 | 0.00 | 0.00 | 91 | 1017.5 |
| 20260902065009 | 63 | 114 | 3.5 | 0.0 | 0.00 | 0.00 | 0.00 | 92 | 1017.3 |
| 20260902064512 | 63 | 137 | 3.5 | 0.0 | 0.00 | 0.00 | 0.00 | 92 | 1017.5 |
| 20260902064007 | 63 | 122 | 3.5 | 0.0 | 0.00 | 0.00 | 0.00 | 92 | 1017.6 |
| 20260902063507 | 63 | 113 | 4.3 | 0.0 | 0.00 | 0.00 | 0.00 | 92 | 1017.4 |
| 20260902063020 | 64 | 118 | 3.5 | 0.0 | 0.00 | 0.00 | 0.00 | 92 | 1017.5 |
| 20260902062507 | 64 | 136 | 2.6 | 0.0 | 0.00 | 0.00 | 0.00 | 92 | 1017.7 |
| 20260902062005 | 64 | 123 | 2.6 | 0.0 | 0.00 | 0.00 | 0.00 | 92 | 1017.4 |
| 20260902061505 | 64 | 139 | 3.5 | 0.0 | 0.00 | 0.00 | 0.00 | 92 | 1017.4 |
| 20260902061005 | 64 | 132 | 3.5 | 0.0 | 0.00 | 0.00 | 0.00 | 93 | 1017.3 |
| 20260902060504 | 64 | 131 | 2.6 | 0.0 | 0.00 | 0.00 | 0.00 | 92 | 1017.4 |
| 20260902060003 | 64 | 151 | 3.5 | 0.0 | 0.00 | 0.00 | 0.00 | 93 | 1017.4 |
| 20260902055503 | 64 | 128 | 4.3 | 0.0 | 0.00 | 0.00 | 0.00 | 93 | 1017.1 |
| 20260902055003 | 64 | 134 | 4.3 | 0.0 | 0.00 | 0.00 | 0.00 | 93 | 1017.2 |
| 20260902054501 | 64 | 128 | 3.5 | 0.0 | 0.00 | 0.00 | 0.00 | 93 | 1017.1 |
| 20260902054002 | 64 | 146 | 3.5 | 0.0 | 0.00 | 0.00 | 0.00 | 93 | 1017.2 |
| 20260902053606 | 64 | 134 | 2.6 | 0.0 | 0.00 | 0.00 | 0.00 | 93 | 1017.2 |
| 20260902053100 | 64 | 132 | 0.9 | 0.0 | 0.00 | 0.00 | 0.00 | 92 | 1017.2 |
| 20260902052603 | 65 | 142 | 1.7 | 0.0 | 0.00 | 0.00 | 0.00 | 93 | 1017.2 |
| 20260902052058 | 65 | 129 | 3.5 | 0.0 | 0.00 | 0.00 | 0.00 | 93 | 1017.2 |
| 20260902051600 | 65 | 136 | 3.5 | 0.0 | 0.00 | 0.00 | 0.00 | 93 | 1017.0 |
| 20260902051058 | 65 | 130 | 2.6 | 0.0 | 0.00 | 0.00 | 0.00 | 93 | 1017.0 |
| 20260902050557 | 65 | 143 | 2.6 | 0.0 | 0.00 | 0.00 | 0.00 | 93 | 1017.0 |
| 20260902050057 | 65 | 128 | 1.7 | 0.0 | 0.00 | 0.00 | 0.00 | 93 | 1016.9 |
| 20260902045559 | 65 | 163 | 1.7 | 0.0 | 0.00 | 0.00 | 0.00 | 93 | 1016.9 |
| 20260902045055 | 65 | 157 | 1.7 | 0.0 | 0.00 | 0.00 | 0.00 | 93 | 1016.8 |
| 20260902044556 | 65 | 141 | 2.6 | 0.0 | 0.00 | 0.00 | 0.00 | 93 | 1016.7 |
| 20260902044054 | 65 | 123 | 2.6 | 0.0 | 0.00 | 0.00 | 0.00 | 93 | 1016.5 |
| 20260902043552 | 65 | 137 | 4.3 | 0.0 | 0.00 | 0.00 | 0.00 | 93 | 1016.5 |
| 20260902043059 | 65 | 121 | 4.3 | 0.0 | 0.00 | 0.00 | 0.00 | 93 | 1016.3 |
| 20260902042553 | 65 | 132 | 3.5 | 0.0 | 0.00 | 0.00 | 0.00 | 93 | 1016.1 |
| 20260902042050 | 65 | 115 | 3.5 | 0.0 | 0.00 | 0.00 | 0.00 | 94 | 1016.1 |
| 20260902041550 | 65 | 114 | 2.6 | 0.0 | 0.00 | 0.00 | 0.00 | 94 | 1016.1 |
| 20260902041049 | 66 | 119 | 2.6 | 0.0 | 0.00 | 0.00 | 0.00 | 94 | 1016.1 |
| 20260902040551 | 66 | 115 | 2.6 | 0.0 | 0.00 | 0.00 | 0.00 | 94 | 1016.0 |
| 20260902040047 | 66 | 115 | 2.6 | 0.0 | 0.00 | 0.00 | 0.00 | 94 | 1015.8 |